User: anonymous   Login
Location: Poughquag
(41.6090°N, 73.6820°W)
Time: 11:01:56
(UTC-04:00)
Language:

Altair - Orbit

View from above orbital plane
View from above orbital plane
View from above satellite
View from above satellite

Ground track
Ground track

The orbit data is extracted from the following two-line orbital elements,

1    50U 60009B   20222.54480206 -.00000089  00000-0 -29156-4 0  9993
2    50  47.2326 316.4952 0113631 124.1961 236.9659 12.20112340677163
Epoch (UTC): 09 August 2020 13:04:30
Eccentricity: 0.0113631
inclination: 47.2326°
perigee height: 1501 km
apogee height: 1682 km
right ascension of ascending node: 316.4952°
argument of perigee: 124.1961°
revolutions per day: 12.20112340
mean anomaly at epoch: 236.9659°
orbit number at epoch: 67716

The dashed part of the orbit path shows where the satellite is in the earth's shadow,  

DLR